This is the latest recevied weather packets stored in our database for station/object W5ALL-WX. If no packets are shown the sender has not sent any weather packets the latest 1 day(s).
| Time | Temp. | Humidity | Pressure | Rain* | Wind** | Luminosity | Snow |
|---|---|---|---|---|---|---|---|
| 1778046131 | 18.33° C | 29% | 1011.7 hPa | 0 mm | 2.68 m/s, 218° | - | - |
| 1778045831 | 18.33° C | 29% | 1011.7 hPa | 0 mm | 2.68 m/s, 193° | - | - |
| 1778045531 | 18.33° C | 29% | 1011.5 hPa | 0 mm | 3.58 m/s, 198° | - | - |
| 1778045231 | 17.78° C | 30% | 1011.5 hPa | 0 mm | 4.02 m/s, 162° | - | - |
| 1778044931 | 18.33° C | 29% | 1011.5 hPa | 0 mm | 3.58 m/s, 190° | - | - |
| 1778044631 | 18.33° C | 30% | 1011.4 hPa | 0 mm | 4.02 m/s, 212° | - | - |
| 1778044331 | 18.33° C | 31% | 1011.4 hPa | 0 mm | 2.68 m/s, 190° | - | - |
| 1778044031 | 18.33° C | 31% | 1011.4 hPa | 0 mm | 3.13 m/s, 194° | - | - |
| 1778043731 | 18.33° C | 32% | 1011.4 hPa | 0 mm | 3.13 m/s, 198° | - | - |
| 1778043431 | 18.33° C | 32% | 1011.4 hPa | 0 mm | 3.13 m/s, 204° | - | - |
| 1778043131 | 18.33° C | 32% | 1011.3 hPa | 0 mm | 3.13 m/s, 184° | - | - |
| 1778042831 | 18.33° C | 33% | 1011.2 hPa | 0 mm | 3.13 m/s, 163° | - | - |
| 1778042531 | 18.89° C | 34% | 1011.2 hPa | 0 mm | 2.68 m/s, 180° | - | - |
| 1778042231 | 18.33° C | 34% | 1011.2 hPa | 0 mm | 2.68 m/s, 180° | - | - |
| 1778041931 | 18.89° C | 34% | 1011.1 hPa | 0 mm | 2.24 m/s, 190° | - | - |
| 1778041631 | 18.89° C | 34% | 1011.1 hPa | 0 mm | 2.24 m/s, 156° | - | - |
| 1778041331 | 18.89° C | 34% | 1011.1 hPa | 0 mm | 2.68 m/s, 170° | - | - |
| 1778041031 | 18.89° C | 34% | 1011 hPa | 0 mm | 2.24 m/s, 198° | - | - |
| 1778040731 | 18.89° C | 34% | 1011 hPa | 0 mm | 2.24 m/s, 179° | - | - |
| 1778040431 | 18.89° C | 34% | 1010.8 hPa | 0 mm | 1.79 m/s, 190° | - | - |
| 1778040131 | 18.89° C | 34% | 1010.7 hPa | 0 mm | 1.79 m/s, 187° | - | - |
| 1778039831 | 18.89° C | 34% | 1010.7 hPa | 0 mm | 2.24 m/s, 174° | - | - |
| 1778039531 | 18.89° C | 34% | 1010.7 hPa | 0 mm | 2.24 m/s, 195° | - | - |
| 1778039231 | 18.89° C | 34% | 1010.6 hPa | 0 mm | 1.79 m/s, 179° | - | - |
| 1778038931 | 18.89° C | 34% | 1010.5 hPa | 0 mm | 1.79 m/s, 191° | - | - |
* Rain latest hour (hover to see other rain measurements)
** Current wind speed in m/s (hover to see current wind gust speed)